When you browse on this site, cookies collect data to enhance your experience and personalize the content and advertising you see.
Visit our Privacy Policy to learn more. By continuing to use the site, you agree to this use of cookies and data.
  • In United Kingdom
  • List of Countries
  • For 7 days
  • Water Temperature
  • Satellite Maps
  • Weather Map
  • Weather Widgets
  • user-avatar
    Login

    Hourly Weather Bogota

    Today, 18 April, Thursday

    Time Temperature Precipitation Wind Pressure Humidity
    00:00 +12°C° 0.7 mm 0 mps 548 mmHg 89%
    01:00 +12°C° 0 mm 0 mps 548 mmHg 90%
    02:00 +12°C° 0.4 mm 0 mps 547 mmHg 90%
    03:00 +12°C° 0.4 mm 0 mps 547 mmHg 91%
    04:00 +11°C° 0.4 mm 0 mps 547 mmHg 91%
    05:00 +12°C° 0.4 mm 0 mps 547 mmHg 90%
    06:00 +12°C° 0.4 mm 0 mps 548 mmHg 90%
    07:00 +12°C° 0.4 mm 0 mps 548 mmHg 89%
    08:00 +13°C° 0.3 mm 0 mps 549 mmHg 85%
    09:00 +14°C° 0.3 mm 0 mps 550 mmHg 80%
    10:00 +16°C° 0.3 mm 1 mps 551 mmHg 75%
    11:00 +18°C° 0.5 mm 1 mps 550 mmHg 74%
    12:00 +18°C° 0.5 mm 1 mps 550 mmHg 73%
    13:00 +18°C° 0.5 mm 1 mps 549 mmHg 72%
    14:00 +16°C° 1.2 mm 1 mps 548 mmHg 77%
    15:00 +16°C° 1.2 mm 1 mps 547 mmHg 82%
    16:00 +14°C° 1.2 mm 0 mps 546 mmHg 87%
    17:00 +13°C° 1.3 mm 0 mps 547 mmHg 88%
    18:00 +14°C° 1.3 mm 1 mps 547 mmHg 89%
    19:00 +13°C° 1.3 mm 1 mps 547 mmHg 90%
    20:00 +13°C° 1 mm 1 mps 547 mmHg 90%
    21:00 +13°C° 1 mm 1 mps 548 mmHg 90%
    22:00 +13°C° 1 mm 1 mps 548 mmHg 90%
    23:00 +13°C° 0.5 mm 1 mps 548 mmHg 90%

    Tomorrow, 19 April, Friday

    Time Temperature Precipitation Wind Pressure Humidity
    00:00 +11°C° 0.5 mm 0 mps 548 mmHg 91%
    01:00 +11°C° 0.5 mm 0 mps 548 mmHg 91%
    02:00 +11°C° 0.2 mm 0 mps 547 mmHg 91%
    03:00 +11°C° 0.2 mm 0 mps 547 mmHg 92%
    04:00 +11°C° 0.2 mm 0 mps 547 mmHg 92%
    05:00 +11°C° 0.1 mm 0 mps 547 mmHg 90%
    06:00 +12°C° 0.1 mm 0 mps 548 mmHg 89%
    07:00 +12°C° 0.1 mm 0 mps 548 mmHg 87%
    08:00 +14°C° 0.2 mm 1 mps 549 mmHg 82%
    09:00 +16°C° 0.2 mm 1 mps 551 mmHg 77%
    10:00 +18°C° 0.2 mm 1 mps 552 mmHg 72%
    11:00 +18°C° 0.6 mm 1 mps 551 mmHg 72%
    12:00 +18°C° 0.6 mm 1 mps 550 mmHg 72%
    13:00 +18°C° 0.6 mm 1 mps 550 mmHg 72%
    14:00 +18°C° 0.6 mm 1 mps 549 mmHg 74%
    15:00 +18°C° 0.6 mm 1 mps 549 mmHg 75%
    16:00 +18°C° 0.6 mm 1 mps 548 mmHg 77%
    17:00 +15°C° 0.8 mm 1 mps 548 mmHg 81%
    18:00 +14°C° 0.8 mm 1 mps 548 mmHg 86%
    19:00 +12°C° 0.8 mm 0 mps 548 mmHg 90%
    20:00 +12°C° 1.2 mm 0 mps 548 mmHg 90%
    21:00 +12°C° 1.2 mm 0 mps 549 mmHg 90%
    22:00 +12°C° 1.2 mm 0 mps 549 mmHg 89%
    23:00 +12°C° 0.7 mm 0 mps 549 mmHg 89%

    Day after tomorrow, 20 April, Saturday

    Time Temperature Precipitation Wind Pressure Humidity
    00:00 +12°C° 0.7 mm 0 mps 548 mmHg 89%
    01:00 +11°C° 0.7 mm 0 mps 548 mmHg 88%
    02:00 +11°C° 0.3 mm 0 mps 548 mmHg 89%
    03:00 +11°C° 0.3 mm 0 mps 547 mmHg 89%
    04:00 +11°C° 0.3 mm 0 mps 547 mmHg 89%
    05:00 +11°C° 0.2 mm 0 mps 548 mmHg 88%
    06:00 +11°C° 0.2 mm 0 mps 548 mmHg 87%
    07:00 +12°C° 0.2 mm 0 mps 549 mmHg 86%
    08:00 +13°C° 0.3 mm 0 mps 550 mmHg 82%
    09:00 +14°C° 0.3 mm 0 mps 551 mmHg 78%
    10:00 +16°C° 0.3 mm 1 mps 552 mmHg 74%
    11:00 +16°C° 1.1 mm 1 mps 551 mmHg 78%
    12:00 +15°C° 1.1 mm 1 mps 550 mmHg 82%
    13:00 +15°C° 1.1 mm 1 mps 549 mmHg 86%
    14:00 +13°C° 1.2 mm 0 mps 548 mmHg 86%
    15:00 +13°C° 1.2 mm 0 mps 548 mmHg 86%
    16:00 +13°C° 1.2 mm 0 mps 547 mmHg 86%
    17:00 +13°C° 0.7 mm 0 mps 547 mmHg 87%
    18:00 +12°C° 0.7 mm 0 mps 548 mmHg 88%
    19:00 +11°C° 0.7 mm 0 mps 548 mmHg 89%
    20:00 +11°C° 1 mm 0 mps 548 mmHg 89%
    21:00 +11°C° 1 mm 0 mps 548 mmHg 89%
    22:00 +11°C° 1 mm 0 mps 549 mmHg 89%
    23:00 +11°C° 0.8 mm 0 mps 548 mmHg 88%

    21 April, Sunday

    Time Temperature Precipitation Wind Pressure Humidity
    00:00 +11°C° 0.8 mm 0 mps 548 mmHg 88%
    01:00 +11°C° 0.8 mm 0 mps 548 mmHg 88%
    02:00 +11°C° 0.4 mm 0 mps 548 mmHg 88%
    03:00 +11°C° 0.4 mm 0 mps 547 mmHg 88%
    04:00 +11°C° 0.4 mm 0 mps 547 mmHg 87%
    05:00 +11°C° 0.3 mm 0 mps 548 mmHg 87%
    06:00 +11°C° 0.3 mm 0 mps 548 mmHg 86%
    07:00 +11°C° 0.3 mm 0 mps 549 mmHg 85%
    08:00 +12°C° 0.3 mm 0 mps 549 mmHg 84%
    09:00 +12°C° 0.3 mm 0 mps 549 mmHg 83%
    10:00 +13°C° 0.3 mm 0 mps 550 mmHg 83%
    11:00 +13°C° 0.2 mm 0 mps 549 mmHg 81%
    12:00 +15°C° 0.2 mm 1 mps 549 mmHg 78%
    13:00 +16°C° 0.2 mm 1 mps 549 mmHg 76%
    14:00 +16°C° 0.3 mm 1 mps 548 mmHg 78%
    15:00 +16°C° 0.3 mm 1 mps 548 mmHg 79%
    16:00 +16°C° 0.3 mm 1 mps 547 mmHg 80%
    17:00 +15°C° 0.4 mm 1 mps 548 mmHg 84%
    18:00 +13°C° 0.4 mm 0 mps 548 mmHg 88%
    19:00 +12°C° 0.4 mm 0 mps 548 mmHg 92%
    20:00 +12°C° 0.7 mm 0 mps 548 mmHg 92%
    21:00 +12°C° 0.7 mm 0 mps 548 mmHg 93%
    22:00 +13°C° 0.7 mm 1 mps 549 mmHg 93%
    23:00 +13°C° 1.8 mm 1 mps 548 mmHg 94%

    22 April, Monday

    Time Temperature Precipitation Wind Pressure Humidity
    00:00 +12°C° 1.8 mm 1 mps 548 mmHg 94%
    01:00 +12°C° 1.8 mm 1 mps 547 mmHg 94%
    02:00 +12°C° 2 mm 1 mps 547 mmHg 94%
    03:00 +11°C° 2 mm 0 mps 547 mmHg 94%
    04:00 +11°C° 2 mm 0 mps 547 mmHg 93%
    05:00 +11°C° 1.8 mm 0 mps 547 mmHg 92%
    06:00 +11°C° 1.8 mm 0 mps 547 mmHg 91%
    07:00 +11°C° 1.8 mm 0 mps 548 mmHg 91%
    08:00 +11°C° 1.8 mm 0 mps 548 mmHg 89%
    09:00 +11°C° 1.8 mm 0 mps 548 mmHg 88%
    10:00 +11°C° 1.8 mm 0 mps 548 mmHg 87%
    11:00 +12°C° 1.3 mm 0 mps 548 mmHg 85%
    12:00 +12°C° 1.3 mm 0 mps 548 mmHg 84%
    13:00 +13°C° 1.3 mm 0 mps 547 mmHg 82%
    14:00 +13°C° 0.8 mm 0 mps 547 mmHg 83%
    15:00 +13°C° 0.8 mm 0 mps 547 mmHg 83%
    16:00 +13°C° 0.8 mm 0 mps 546 mmHg 83%
    17:00 +12°C° 0.4 mm 0 mps 546 mmHg 85%
    18:00 +11°C° 0.4 mm 0 mps 547 mmHg 87%
    19:00 +11°C° 0.4 mm 0 mps 547 mmHg 89%
    20:00 +11°C° 0.7 mm 0 mps 547 mmHg 89%
    21:00 +10°C° 0.7 mm 0 mps 547 mmHg 88%
    22:00 +10°C° 0.7 mm 0 mps 548 mmHg 88%
    23:00 +10°C° 0.7 mm 0 mps 547 mmHg 88%

    23 April, Tuesday

    Time Temperature Precipitation Wind Pressure Humidity
    00:00 +10°C° 0.7 mm 0 mps 547 mmHg 88%
    01:00 +10°C° 0.7 mm 0 mps 546 mmHg 89%
    02:00 +9°C° 0.9 mm 0 mps 546 mmHg 89%
    03:00 +9°C° 0.9 mm 0 mps 546 mmHg 89%
    04:00 +9°C° 0.9 mm 0 mps 546 mmHg 89%
    05:00 +9°C° 1 mm 0 mps 547 mmHg 88%
    06:00 +9°C° 1 mm 0 mps 547 mmHg 88%
    07:00 +10°C° 1 mm 0 mps 547 mmHg 88%
    08:00 +11°C° 1.5 mm 1 mps 548 mmHg 87%
    09:00 +11°C° 1.5 mm 1 mps 548 mmHg 86%
    10:00 +12°C° 1.5 mm 1 mps 548 mmHg 85%
    11:00 +12°C° 1.4 mm 1 mps 548 mmHg 84%
    12:00 +12°C° 1.4 mm 1 mps 547 mmHg 84%
    13:00 +13°C° 1.4 mm 1 mps 547 mmHg 83%
    14:00 +13°C° 0.5 mm 1 mps 547 mmHg 82%
    15:00 +13°C° 0.5 mm 1 mps 547 mmHg 81%
    16:00 +13°C° 0.5 mm 0 mps 546 mmHg 80%
    17:00 +13°C° 0.1 mm 1 mps 547 mmHg 82%
    18:00 +12°C° 0.1 mm 1 mps 547 mmHg 85%
    19:00 +11°C° 0.1 mm 1 mps 547 mmHg 88%
    20:00 +11°C° 0.1 mm 1 mps 547 mmHg 88%
    21:00 +11°C° 0.1 mm 1 mps 547 mmHg 88%
    22:00 +11°C° 0.1 mm 1 mps 548 mmHg 89%
    23:00 +11°C° 0 mm 1 mps 548 mmHg 89%
    Show more